Location: Stonelick Lake State Park
(39.2170°N, 84.0850°W)
Time: 07:40:31
(UTC-04:00)

Daily predictions for brighter satellites

Satellite Brightness Start Highest point End
(mag) Time Altitude Azimuth Time Altitude Azimuth Time Altitude Azimuth
Meteor 2-5 Rocket 3.8 20:12:27 10° N 20:18:13 87° E 20:24:04 10° S
USA 215 4.3 20:13:19 10° ENE 20:18:16 23° ESE 20:23:11 10° S
COSMOS 2406 3.6 20:15:56 10° NNW 20:21:41 73° WSW 20:27:20 10° SSE
Cosmos 1766 3.5 20:20:22 10° SSE 20:24:03 45° E 20:27:47 10° NNE
Spot 2 Rocket 4.0 20:20:26 10° SE 20:25:07 38° ENE 20:29:51 10° N
Cosmos 1844 4.0 20:24:03 10° SSW 20:29:48 79° WNW 20:35:39 10° NNE
Resurs 1-3 4.1 20:29:53 10° SE 20:33:57 38° ENE 20:38:01 10° N
Cosmos 2150 Rocket 4.4 20:29:20 10° SSW 20:34:26 70° WNW 20:39:36 10° NNE
Cosmos 990 Rocket 4.0 20:30:40 10° SSW 20:35:55 90° W 20:41:12 10° NNE
BREEZE-M DEB (TANK) 2.7 20:36:58 10° SW 20:39:32 73° SE 20:45:23 10° ENE
RESURS DK-1 2.3 20:36:21 10° NNW 20:40:29 68° ENE 20:44:34 10° SSE
Envisat 4.3 20:40:01 12° ESE 20:43:18 22° ENE 20:47:06 10° NNE
Cosmos 1674 4.2 20:43:59 10° NNE 20:46:32 17° ENE 20:47:22 16° E
Lacrosse 5 2.1 20:43:03 10° SW 20:48:06 73° NW 20:53:11 10° NE
Cosmos 1125 Rocket 3.9 20:45:17 10° S 20:50:05 39° ESE 20:54:55 10° NE
Cosmos 2344 3.8 20:43:19 10° SW 20:50:59 81° NW 20:59:33 10° NNE
BREEZE-M DEB (TANK) 3.4 20:49:38 10° SSW 20:52:28 34° SE 20:59:32 10° ENE
CZ-2D R/B 3.4 20:48:47 10° SSE 20:52:31 51° ENE 20:56:18 10° N
Timation 1 Rocket 4.4 20:50:11 10° S 20:56:00 54° ESE 21:01:51 10° NNE
Cosmos 1805 3.2 20:53:48 10° S 20:57:37 58° E 21:01:28 10° NNE
Cosmos 1934 Rocket 4.2 20:51:38 10° SSW 20:57:46 75° W 21:03:51 10° N
SAR-Lupe-4 4.1 20:55:34 17° SE 20:57:53 38° ENE 21:01:13 10° N
Geosat 4.0 20:53:14 10° NNE 20:58:14 62° ESE 21:03:11 10° SSW
Okean 3 Rocket 3.5 20:55:41 10° N 21:00:04 67° E 21:04:27 10° SSE
Tiangong 1 1.4 20:58:55 10° WNW 21:01:46 49° SSW 21:03:03 27° SE
HJ-1C 4.5 20:59:23 10° S 21:02:40 47° W 21:05:59 10° NNW
ERS-1 Rocket 4.4 21:03:25 18° ENE 21:04:22 19° ENE 21:07:47 10° NNE
In-Cosmos 22 4.0 20:59:20 10° N 21:04:41 85° E 21:09:57 10° S
Abrixas 3.3 21:03:37 10° NW 21:06:17 34° NNE 21:06:57 30° ENE
SeaSat 1 3.3 21:06:19 10° S 21:11:05 49° WSW 21:15:52 10° NW
SL-27 R/B 3.8 21:08:58 10° NNW 21:12:21 40° WSW 21:15:46 10° S
Cosmos 1470 3.5 21:12:26 31° E 21:12:39 31° E 21:16:11 10° NNE
USA 186 1.5 21:15:09 46° NNE 21:15:09 46° NNE 21:16:52 10° N
Cosmos 1340 Rocket 4.0 21:14:08 10° NNE 21:17:07 25° ENE 21:17:07 25° ENE
SAR-Lupe-1 4.0 21:16:04 32° SE 21:17:30 59° ENE 21:21:03 10° N
Cosmos 1833 Rocket 3.1 21:13:31 10° N 21:18:54 44° ENE 21:21:14 29° ESE
H-2A R/B (2) 3.5 21:16:31 10° SW 21:19:13 21° S 21:20:59 18° SE
Meteor 1-29 3.0 21:16:05 10° NNE 21:19:28 51° E 21:21:00 28° SSE
Cosmos 2278 Rocket 3.0 21:15:49 10° SW 21:21:20 53° WNW 21:26:55 10° NNE
Cosmos 1818 3.5 21:16:46 10° NNW 21:22:13 70° ENE 21:25:02 29° SE
Cosmos 1076 Rocket 3.3 21:18:07 10° N 21:22:22 75° E 21:25:13 20° SSE
GP-B 3.0 21:19:19 14° SSE 21:23:03 63° E 21:27:27 10° N
COSMOS 2487 2.9 21:20:15 10° N 21:23:39 42° ENE 21:23:39 42° ENE
Meteor 1-4 Rocket 2.5 21:20:48 10° SSW 21:24:16 78° W 21:27:46 10° N
Cosmos 1733 3.7 21:27:32 40° ENE 21:27:32 40° ENE 21:30:40 10° NNE
Resurs 01 Rocket 2.8 21:23:12 10° S 21:27:24 43° W 21:31:38 10° NNW
Helios 1B rocket 2.3 21:23:27 10° NNE 21:27:36 86° E 21:31:43 10° SSW
SJ-11-01 4.5 21:26:00 35° SE 21:27:36 50° ENE 21:32:10 10° N
CZ-3B DEB 3.9 21:18:54 10° WSW 21:29:01 43° NW 21:33:53 10° NNE
Cosmos 1544 4.1 21:27:01 10° SSW 21:30:32 47° W 21:34:06 10° N
Cosmos 1269 Rocket 3.9 21:26:18 10° NNW 21:31:35 70° ENE 21:33:58 33° SE
Cosmos 1766 Rocket 3.5 21:28:04 10° N 21:32:34 70° E 21:34:17 36° SSE
SWAS 4.4 21:31:02 10° S 21:35:16 61° ESE 21:39:32 10° NNE
Cosmos 1758 4.0 21:31:30 10° SSW 21:35:23 54° W 21:39:19 10° N
Cosmos 2297 3.7 21:30:15 10° SSW 21:35:57 88° WNW 21:41:44 10° NNE
Helios 1A 3.1 21:33:37 22° S 21:36:14 74° WSW 21:40:26 10° NNW
ATLAS 5 CENTAUR R/B 1.7 21:32:21 10° SSW 21:36:53 58° ESE 21:41:13 13° NE
GPS 2-05 Rocket1 4.2 21:36:47 10° SW 21:39:10 29° SSW 21:39:10 29° SSW
Cosmos 2100 Rocket 3.9 21:34:19 10° S 21:40:34 70° E 21:46:54 10° NNE
Cosmos 1953 3.4 21:40:12 10° SSW 21:44:07 47° W 21:48:04 10° N
Cosmos-2242 2.8 21:44:00 28° S 21:46:11 89° E 21:50:27 10° N
Cosmos 1939 Rocket 2.8 21:46:50 73° E 21:46:57 74° ENE 21:51:06 10° N
Cosmos 372 Rocket 4.1 21:47:14 10° SSW 21:52:19 72° WNW 21:57:29 10° NNE
Cosmos 2082 Rocket 2.1 21:46:56 10° NNW 21:52:39 87° WSW 21:54:34 44° SSE
Cosmos 1867 4.0 21:51:14 10° SW 21:56:37 62° WNW 22:02:03 10° NNE
Meteor 1-16 Rocket 4.4 21:58:15 51° E 21:58:15 51° E 22:03:36 10° NNE
Cosmos 1802 Rocket 3.8 21:56:21 21° S 22:00:32 78° E 22:06:43 10° N
Cosmos 1271 Rocket 3.1 22:00:43 61° WSW 22:01:03 65° W 22:05:03 10° N
USA 215 3.2 21:55:09 10° NE 22:01:44 87° NW 22:08:16 10° SW
Cosmos 158 Rocket 4.1 21:58:23 10° NNW 22:03:30 73° WSW 22:04:41 52° S
Cosmos 1743 Rocket 4.0 21:59:47 10° N 22:03:13 51° NNE 22:03:13 51° NNE
Lacrosse 5 rocket 2.8 22:04:19 10° NNW 22:06:37 28° N 22:06:37 28° N
ARGOS 4.2 22:10:26 31° NE 22:10:26 31° NE 22:13:51 10° N
Cosmos 2061 Rocket 4.1 22:05:55 10° S 22:12:17 78° W 22:18:45 10° N
Timation 2 Rocket 4.1 22:12:37 10° NNW 22:18:54 69° WSW 22:20:08 54° SSW
H-2A R/B 3.8 22:24:04 21° NNE 22:24:04 21° NNE 22:26:19 10° N
Envisat 4.0 22:20:14 32° SW 22:22:00 43° W 22:26:51 10° NNW
Lacrosse 5 4.3 22:28:22 10° WNW 22:31:53 18° NNW 22:35:23 10° NNE
USA 267 3.9 22:32:47 41° NE 22:33:18 42° NNE 22:39:21 10° NW
SPOT 5 3.9 22:35:43 43° N 22:35:43 43° N 22:39:20 10° N
ERS-1 Rocket 3.8 22:43:25 47° WNW 22:43:25 47° WNW 22:47:38 10° NNW
Terra 4.4 23:00:29 12° N 23:00:29 12° N 23:00:54 10° N
Cosmos 1833 Rocket 4.4 22:58:05 10° NW 23:02:29 24° WSW 23:02:59 24° WSW
ATLAS 5 CENTAUR R/B 4.2 23:18:25 10° W 23:22:00 20° NW 23:25:50 10° N
